Regional Weather Roundup
Issued by NWS Upton, NY

Current Version | Previous Version | Graphics & Text | Print | Product List | Glossary Off
Versions: 1 2 3 4 5 6 7 8 9 10 11 12 13 14 15 16 17 18 19 20 21 22 23 24 25 26 27

000
ASUS41 KOKX 220105
RWROKX

REGIONAL WEATHER ROUNDUP
NATIONAL WEATHER SERVICE NEW YORK NY
900 PM EDT TUE OCT 21 2014

NOTE: "FAIR" INDICATES FEW OR NO CLOUDS BELOW 12,000 FEET WITH NO
SIGNIFICANT WEATHER AND/OR OBSTRUCTIONS TO VISIBILITY.

NYZ071-072-176-178-NJZ106-104-220200-
NEW YORK CITY METRO AREA


CITY           SKY/WX    TMP DP  RH WIND       PRES   REMARKS
CENTRAL PARK   CLOUDY    58  53  84 VRB3      29.93R
LAGUARDIA APRT MOCLDY    62  53  72 VRB5      29.89R
KENNEDY INTL   PTCLDY    57  51  80 N6        29.89R
NEWARK/LIBERTY CLOUDY    58  53  84 NE14      29.88S
BRNX BOT. GARD   N/A     59  54  82 NW1       29.91R
TETERBORO      TSTM      57  53  86 NW5       29.90R
$$

NYZ177-179-078>081-220200-
LONG ISLAND NEW YORK

CITY           SKY/WX    TMP DP  RH WIND       PRES   REMARKS
FARMINGDALE    MOCLDY    55  53  93 N8        29.88R
ISLIP          MOCLDY    55  52  89 N5        29.87R
SHIRLEY        PTCLDY    56  52  86 NE3       29.89R
WESTHAMPTON    CLOUDY    58  54  86 NE3       29.89S
MONTAUK POINT    N/A     62  58  86 NE3       29.91R
$$

NYZ052-065-067-220200-
HUDSON VALLEY

CITY           SKY/WX    TMP DP  RH WIND       PRES   REMARKS
WHITE PLAINS   MOCLDY    55  52  89 N8        29.90R
NEWBURGH       CLOUDY    52  50  93 CALM      29.93R
MONTGOMERY     CLOUDY    52  49  89 NE7       29.93R
POUGHKEEPSIE   LGT RAIN  53  50  89 NW3       29.93R
ALBANY         CLOUDY    51  47  86 N7        29.99R
$$

NJZ001-105-106-008-010-013-015-019>022-104-220200-
NEW JERSEY

CITY           SKY/WX    TMP DP  RH WIND       PRES   REMARKS
NEWARK/LIBERTY CLOUDY    58  53  84 NE14      29.88S
TETERBORO      TSTM      57  53  86 NW5       29.90R
CALDWELL       LGT RAIN  55  52  89 NE3       29.90S
MORRISTOWN     CLOUDY    54  52  94 N5        29.90R
SOMERVILLE     MOCLDY    54  51  90 N5        29.87R
SUSSEX         CLOUDY    55  49  80 NE5       29.92R
ANDOVER          N/A     52  51  97 NE5       29.91R
TRENTON        MOCLDY    58  52  80 NE9       29.87R
MILLVILLE      MOCLDY    52  49  89 CALM      29.85R
ATLANTIC CITY  PTCLDY    53  51  93 CALM      29.85R
WRIGHTSTOWN    MOCLDY    53  53  99 NE5       29.84R
TOMS RIVER     PTCLDY    50  48  93 CALM      29.86R
BELMAR         PTCLDY    55  48  76 NE3       29.87R
$$

PAZ047>061-062-071-220200-
EASTERN PENNSYLVANIA

CITY           SKY/WX    TMP DP  RH WIND       PRES   REMARKS
PHILADELPHIA   CLOUDY    64  48  56 N7        29.86R
ALLENTOWN      MOCLDY    55  49  80 NE7       29.89R
SCRANTON       CLOUDY    53  50  89 E3        29.92R
$$

CTZ002-004>006-009-010-012-RIZ004-006-007-MAZ004-011-015-220200-
SOUTHERN NEW ENGLAND
 IN CT

CITY           SKY/WX    TMP DP  RH WIND       PRES   REMARKS
BRADLEY INTL   CLOUDY    55  48  77 N10       29.93R
HARTFORD       LGT RAIN  55  50  83 VRB5      29.93R
DANBURY        HAZE      51  30  44 CALM      29.92R VSB 1/2
WTRBRY/OXFORD  MOCLDY    55  46  71 E6        29.93R
BRIDGEPORT     MOCLDY    58  53  84 NE10      29.90R
MERIDEN        LGT RAIN  56  50  80 N9        29.92R
NEW HAVEN      MOCLDY    59  54  83 N9        29.91R
CHESTER        HVY RAIN  55  54  94 CALM      29.93R
GROTON         CLOUDY    58  56  93 NE5       29.91R
WILLIMANTIC    CLOUDY    59  53  80 NE9       29.93R

 IN RI

CITY           SKY/WX    TMP DP  RH WIND       PRES   REMARKS
PROVIDENCE     CLOUDY    57  56  96 NE10      29.93R FOG
BLOCK ISLAND   MOCLDY    61  55  82 E7        29.90R
WESTERLY       CLOUDY    57  56  96 N6        29.92R

 IN MA

CITY           SKY/WX    TMP DP  RH WIND       PRES   REMARKS
BOSTON         CLOUDY    57  54  89 NE10      29.95R
WORCESTER      CLOUDY    53  51  93 NE6       29.96R
WESTFIELD      CLOUDY    54  48  80 N10       29.95R
PROVINCETOWN   CLOUDY    57  54  88 NE5       29.94R
NANTUCKET      PTCLDY    56  54  93 E8        29.90S
$$

ANZ330-335-338-340-345-350-353-355-220200-
COASTAL MARINE OBSERVATIONS


STATION/POSITION TIME  SKY/WX   TEMP    WIND        PRES    VSBY  WAVE
                                AIR SEA DIR/SP/G                  HT/PER
                 (UTC)          (F)     (DEG/KT/KT) (MB)    (MI)  (FT/S)
NY HARB ENTRANCE NOT AVBL
4S FIRE IS       0100               64                N/A           3/ 7
20S FIRE ISLAND  0100            62 64   90/ 10/ 10 1011.0          4/ 7
23SW MTP         0100                                 N/A           4/ 7
HUDSON CANYON    0100            63 67   10/ 14/ 17 1010.9          4/ 7
EXECUTION ROCKS  0100            61 63  360/  6/  8   N/A
WESTERN LI SOUND 0100            62      30/  8/ 10   N/A           1/ 3
CENTRAL LI SOUND 0000            63 64  120/ 12/ 14   N/A           1/ 2
EASTERN LI SOUND 0000            62 64   70/ 10/ 12   N/A
ROBBINS REEF     0100            59      10/  8/ 10 1010.8
$$


>>>>>>>>>>>>>>>>>>>>>>>>>>>> KEY <<<<<<<<<<<<<<<<<<<<<<<<<<<
>                                                          <
>     SKY/WX - SKY CONDITION/PRESENT WEATHER               <
>     TMP    - TEMPERATURE IN FAHRENHEIT                   <
>     DP     - DEWPOINT IN FAHRENHEIT                      <
>     RH     - RELATIVE HUMIDITY IN PERCENT                <
>     WIND   - DIRECTION AND SPEED IN MPH                  <
>     PRES   - MEAN SEA LEVEL PRESSURE IN INCHES OF HG     <
>     WCI    - WIND CHILL INDEX                            <
>     VSB    - VISIBILITY IN MILES                         <
>     HX     - HEAT INDEX                                  <
>     TC     - TEMPERATURE IN CELSIUS                      <
>     VRB    - VARIABLE WIND DIRECTION                     <
>                                                          <
>>>>>>>>>>>>>>>>>>>>>>>>>>>> KEY <<<<<<<<<<<<<<<<<<<<<<<<<<<





USA.gov is the U.S. government's official web portal to all federal, state and local government web resources and services.